Time,TemperatureF,DewpointF,PressureIn,WindDirection,WindDirectionDegrees,WindSpeedMPH,WindSpeedGustMPH,Humidity,HourlyPrecipIn,Conditions,Clouds,dailyrainin,SoftwareType,DateUTC
2013-05-15 08:28:00,65.2,57.0,30.09,East,89,1.0,4.0,75,0.00,,,0.00,weatherlink.com 1.10,2013-05-15 12:28:00,
2013-05-15 08:43:00,66.6,58.0,30.10,East,100,1.0,5.0,73,0.00,,,0.00,weatherlink.com 1.10,2013-05-15 12:43:00,
2013-05-15 08:59:00,68.1,58.0,30.10,ENE,76,7.0,7.0,70,0.00,,,0.00,weatherlink.com 1.10,2013-05-15 12:59:00,
2013-05-15 09:14:00,69.7,59.0,30.10,ENE,69,2.0,3.0,68,0.00,,,0.00,weatherlink.com 1.10,2013-05-15 13:14:00,
2013-05-15 09:29:00,71.0,59.0,30.10,East,88,2.0,3.0,66,0.00,,,0.00,weatherlink.com 1.10,2013-05-15 13:29:00,
2013-05-15 09:44:00,71.9,59.0,30.10,ENE,67,2.0,5.0,65,0.00,,,0.00,weatherlink.com 1.10,2013-05-15 13:44:00,
2013-05-15 10:14:00,74.0,60.0,30.09,ESE,113,1.0,3.0,62,0.00,,,0.00,weatherlink.com 1.10,2013-05-15 14:14:00,
2013-05-15 10:29:00,75.3,59.0,30.09,East,90,0.0,5.0,58,0.00,,,0.00,weatherlink.com 1.10,2013-05-15 14:29:00,
2013-05-15 10:44:00,77.1,60.0,30.09,East,84,3.0,4.0,55,0.00,,,0.00,weatherlink.com 1.10,2013-05-15 14:44:00,
2013-05-15 10:59:00,77.7,59.0,30.09,SE,136,0.0,5.0,53,0.00,,,0.00,weatherlink.com 1.10,2013-05-15 14:59:00,
2013-05-15 11:14:00,79.3,61.0,30.09,ENE,75,2.0,5.0,54,0.00,,,0.00,weatherlink.com 1.10,2013-05-15 15:14:00,
2013-05-15 11:29:00,80.8,60.0,30.09,East,89,2.0,5.0,50,0.00,,,0.00,weatherlink.com 1.10,2013-05-15 15:29:00,
2013-05-15 11:59:00,82.5,61.0,30.08,ENE,78,4.0,6.0,48,0.00,,,0.00,weatherlink.com 1.10,2013-05-15 15:59:00,
2013-05-15 12:14:00,83.5,61.0,30.08,East,100,2.0,4.0,46,0.00,,,0.00,weatherlink.com 1.10,2013-05-15 16:14:00,
2013-05-15 12:59:00,85.5,61.0,30.06,East,92,5.0,7.0,44,0.00,,,0.00,weatherlink.com 1.10,2013-05-15 16:59:00,
2013-05-15 13:15:00,85.5,60.0,30.05,West,263,1.0,7.0,42,0.00,,,0.00,weatherlink.com 1.10,2013-05-15 17:15:00,
2013-05-15 13:30:00,85.8,60.0,30.04,SE,132,1.0,9.0,42,0.00,,,0.00,weatherlink.com 1.10,2013-05-15 17:30:00,
2013-05-15 13:45:00,86.1,60.0,30.04,NE,54,3.0,6.0,42,0.00,,,0.00,weatherlink.com 1.10,2013-05-15 17:45:00,
2013-05-15 14:15:00,87.7,61.0,30.02,ENE,69,0.0,9.0,40,0.00,,,0.00,weatherlink.com 1.10,2013-05-15 18:15:00,
2013-05-15 14:30:00,87.3,60.0,30.02,East,85,1.0,9.0,40,0.00,,,0.00,weatherlink.com 1.10,2013-05-15 18:30:00,
2013-05-15 14:45:00,88.1,60.0,30.02,ENE,69,2.0,6.0,39,0.00,,,0.00,weatherlink.com 1.10,2013-05-15 18:45:00,
2013-05-15 15:00:00,88.0,61.0,30.01,ESE,103,4.0,7.0,41,0.00,,,0.00,weatherlink.com 1.10,2013-05-15 19:00:00,
2013-05-15 15:15:00,88.5,61.0,30.01,ESE,103,1.0,7.0,40,0.00,,,0.00,weatherlink.com 1.10,2013-05-15 19:15:00,
2013-05-15 15:30:00,88.5,60.0,30.00,ENE,76,1.0,11.0,38,0.00,,,0.00,weatherlink.com 1.10,2013-05-15 19:30:00,
2013-05-15 15:45:00,88.5,61.0,29.99,NE,56,4.0,10.0,40,0.00,,,0.00,weatherlink.com 1.10,2013-05-15 19:45:00,
2013-05-15 16:00:00,88.4,60.0,29.98,East,94,2.0,7.0,38,0.00,,,0.00,weatherlink.com 1.10,2013-05-15 20:00:00,
2013-05-15 16:15:00,88.2,60.0,29.98,ENE,67,3.0,12.0,38,0.00,,,0.00,weatherlink.com 1.10,2013-05-15 20:15:00,
2013-05-15 16:45:00,88.2,61.0,29.97,SE,126,2.0,13.0,40,0.00,,,0.00,weatherlink.com 1.10,2013-05-15 20:45:00,
2013-05-15 17:00:00,88.0,61.0,29.96,ENE,78,5.0,15.0,41,0.00,,,0.00,weatherlink.com 1.10,2013-05-15 21:00:00,
2013-05-15 17:45:00,87.6,60.0,29.92,ESE,119,1.0,12.0,40,0.00,,,0.00,weatherlink.com 1.10,2013-05-15 21:45:00,
2013-05-15 18:00:00,87.4,60.0,29.94,ENE,70,5.0,11.0,40,0.00,,,0.00,weatherlink.com 1.10,2013-05-15 22:00:00,
2013-05-15 18:30:00,87.0,60.0,29.91,ENE,76,7.0,8.0,40,0.00,,,0.00,weatherlink.com 1.10,2013-05-15 22:30:00,
2013-05-15 18:45:00,86.1,60.0,29.92,East,93,1.0,11.0,41,0.00,,,0.00,weatherlink.com 1.10,2013-05-15 22:45:00,
2013-05-15 19:00:00,84.8,60.0,29.93,ESE,109,1.0,10.0,43,0.00,,,0.00,weatherlink.com 1.10,2013-05-15 23:00:00,
2013-05-15 19:15:00,83.9,60.0,29.92,ESE,120,4.0,12.0,44,0.00,,,0.00,weatherlink.com 1.10,2013-05-15 23:15:00,
2013-05-15 19:30:00,83.3,60.0,29.93,East,92,2.0,12.0,45,0.00,,,0.00,weatherlink.com 1.10,2013-05-15 23:30:00,
2013-05-15 19:46:00,82.7,60.0,29.94,East,93,1.0,9.0,46,0.00,,,0.00,weatherlink.com 1.10,2013-05-15 23:46:00,
2013-05-15 20:01:00,82.3,59.0,29.95,ENE,63,0.0,7.0,46,0.00,,,0.00,weatherlink.com 1.10,2013-05-16 00:01:00,
2013-05-15 20:16:00,81.5,59.0,29.95,East,90,1.0,7.0,47,0.00,,,0.00,weatherlink.com 1.10,2013-05-16 00:16:00,
2013-05-15 20:34:00,81.1,60.0,29.95,ENE,74,2.0,2.0,49,0.00,,,0.00,weatherlink.com 1.10,2013-05-16 00:34:00,
2013-05-15 20:46:00,79.9,60.0,29.95,ESE,120,0.0,6.0,50,0.00,,,0.00,weatherlink.com 1.10,2013-05-16 00:46:00,
2013-05-15 21:01:00,78.9,59.0,29.96,East,82,1.0,6.0,50,0.00,,,0.00,weatherlink.com 1.10,2013-05-16 01:01:00,
2013-05-15 21:31:00,78.0,57.0,29.96,ESE,102,2.0,9.0,49,0.00,,,0.00,weatherlink.com 1.10,2013-05-16 01:31:00,
2013-05-15 21:46:00,77.6,57.0,29.96,East,99,2.0,6.0,49,0.00,,,0.00,weatherlink.com 1.10,2013-05-16 01:46:00,
2013-05-15 22:01:00,77.1,57.0,29.97,ESE,106,3.0,5.0,50,0.00,,,0.00,weatherlink.com 1.10,2013-05-16 02:01:00,
2013-05-15 22:46:00,75.8,57.0,29.98,ENE,66,2.0,9.0,52,0.00,,,0.00,weatherlink.com 1.10,2013-05-16 02:46:00,
2013-05-15 23:16:00,74.8,57.0,29.98,SE,141,1.0,4.0,54,0.00,,,0.00,weatherlink.com 1.10,2013-05-16 03:16:00,
2013-05-15 23:31:00,74.1,57.0,29.98,ESE,108,0.0,4.0,55,0.00,,,0.00,weatherlink.com 1.10,2013-05-16 03:31:00,
2013-05-15 23:46:00,73.4,57.0,29.98,ESE,122,0.0,4.0,57,0.00,,,0.00,weatherlink.com 1.10,2013-05-16 03:46:00,